Location: Unspecified
(45.6669°N, 0.0000°E)
Time: 13:59:40
(UTC+00:00)

ISS - Pass Details

Date: 22 May 2019
Orbit: 408 x 418 km, 51.6° (Epoch: 25 June)

Event Time Altitude Azimuth Distance (km) Brightness Sun altitude
Rises 22:09:21 0° 283° (WNW) 2,358 0.6 -19.5°
Reaches altitude 10° 22:11:38 10° 296° (WNW) 1,497 -0.2 -19.7°
Maximum altitude 22:14:36 28° 358° (N) 818 -1.7 -19.9°
Drops below altitude 10° 22:17:35 10° 60° (ENE) 1,503 -0.9 -20.1°
Enters shadow 22:18:47 - 68° (ENE) 1,947 -0.4 -20.2°
